Regional Weather Roundup
Issued by NWS

Home | Current Version | Previous Version | Text Only | Print | Product List | Glossary Off
Versions: 1 2 3 4 5 6 7 8 9 10 11 12 13 14 15 16 17 18 19 20 21 22 23 24 25 26 27 28 29 30 31 32 33 34 35 36 37 38 39 40 41 42 43 44 45 46 47 48 49 50

000
ASUS43 KLOT 051803
RWRIL

ILLINOIS REGIONAL WEATHER ROUNDUP
NATIONAL WEATHER SERVICE CHICAGO/ROMEOVILLE IL
1200 PM CST FRI FEB 05 2016

NOTE: "FAIR" INDICATES FEW OR NO CLOUDS BELOW 12,000 FEET WITH NO
SIGNIFICANT WEATHER AND/OR OBSTRUCTIONS TO VISIBILITY.

* THESE STATIONS ARE NOT UNDER NWS QUALITY CONTROL. THEY ALSO MAY NOT
  REPORT WEATHER SUCH AS PRECIPITATION OR FOG.

ILZ001-002-007-009-015-016-024-051900-
NORTHWEST ILLINOIS

CITY           SKY/WX    TMP DP  RH WIND       PRES   REMARKS
MOLINE         MOSUNNY   31  18  58 VRB5      30.40F WCI  26
6HR MIN TEMP:  26; 6HR MAX TEMP:  31;

STERLING*      MOSUNNY   28  19  69 W8        30.37F WCI  20
$$

ILZ003-004-008-010-011-017-018-051900-
NORTH CENTRAL ILLINOIS

CITY           SKY/WX    TMP DP  RH WIND       PRES   REMARKS
ROCKFORD       CLOUDY    30  19  63 NW6       30.39F WCI  24
6HR MIN TEMP:  25; 6HR MAX TEMP:  30;

FREEPORT*      SUNNY     28  19  69 CALM      30.39F
DE KALB*       CLOUDY    29  22  76 NW7       30.36F WCI  22
$$

ILZ005-006-012>014-019>023-051900-
NORTHEAST ILLINOIS

CITY           SKY/WX    TMP DP  RH WIND       PRES   REMARKS
CHICAGO-OHARE  PTSUNNY   31  22  69 NW10      30.34F WCI  22
6HR MIN TEMP:  26; 6HR MAX TEMP:  31;

CHICAGO-MIDWAY PTSUNNY   32  22  66 NW8       30.35F WCI  25
6HR MIN TEMP:  27; 6HR MAX TEMP:  32; 6HR PCP: TRACE;

AURORA         CLOUDY    28  21  75 N10       30.37F WCI  19
6HR MIN TEMP:  28; 6HR MAX TEMP:  29;

LANSING*       CLOUDY    32  25  73 NW5       30.34F WCI  28
WAUKEGAN       MOSUNNY   29  21  72 NW7       30.34F WCI  22
6HR MIN TEMP:  25; 6HR MAX TEMP:  29;

DUPAGE AIRPORT PTSUNNY   28  21  75 NW9       30.35F WCI  19
6HR MIN TEMP:  27; 6HR MAX TEMP:  29;

WHEELING       CLOUDY    30  22  72 NW9       30.36F WCI  22
6HR MIN TEMP:  27; 6HR MAX TEMP:  30;

NORTHERLY ISL    N/A     31  25  78 NE9         N/A  WCI  23
$$

LMZ740>746-051900-
SOUTHERN LAKE MICHIGAN

STATION/POSITION SKY/WX   TEMP    WIND        PRES    VSBY  WAVE
                          AIR SEA DIR/SP/G                  HT/PER
                          (F)     (DEG/KT/KT) (MB)    (MI)  (FT/S)
HARRISON CRIB              29     350/ 16/ 17   N/A
BURNHAM HARBOR             30      10/  7/ 12   N/A
CALUMET HARBOR             30     340/ 11/ 14 1027.2
BURNS HARBOR               30     330/ 12/ 15 1028.1S
MICHIGAN CITY              31     240/  9/  9   N/A
$$

ILZ025>027-034>036-040-047-049-050-058-095>099-051900-
WEST-CENTRAL ILLINOIS

CITY           SKY/WX    TMP DP  RH WIND       PRES   REMARKS
QUINCY         CLOUDY    30  20  66 NW6       30.41F WCI  24
MACOMB*        CLOUDY    29  21  74 NW3       30.44F
$$

ILZ028>032-037-038-041>044-048-051>054-059>061-051900-
CENTRAL ILLINOIS

CITY           SKY/WX    TMP DP  RH WIND       PRES   REMARKS
BLOOMINGTON    CLOUDY    31  22  69 W6        30.39F WCI  25
DECATUR        CLOUDY    32  22  66 NW7       30.40F WCI  26
PEORIA         MOSUNNY   31  20  63 NW3       30.40F
6HR MIN TEMP:  27; 6HR MAX TEMP:  31;

LINCOLN*       MOSUNNY   31  23  72 N5        30.41F WCI  27
SPRINGFIELD    MOSUNNY   33  23  66 W5        30.42F WCI  29
6HR MIN TEMP:  22; 6HR MAX TEMP:  34;

TAYLORVILLE    NOT AVBL
$$

ILZ033-039-045-046-055>057-062-063-051900-
EAST-CENTRAL ILLINOIS

CITY           SKY/WX    TMP DP  RH WIND       PRES   REMARKS
CHAMPAIGN      CLOUDY    30  23  75 W10       30.39F WCI  21
MATTOON        CLOUDY    30  22  72 NW7       30.39F WCI  23
$$

ILZ079-100>102-051900-
SOUTHWEST ILLINOIS

CITY           SKY/WX    TMP DP  RH WIND       PRES   REMARKS
BELLEVILLE     SUNNY     39  22  50 NW6       30.42F WCI  35
CAHOKIA*       SUNNY     39  21  48 VRB3      30.43F
SPARTA*        CLOUDY    37  26  65 W5        30.44F WCI  33
$$

ILZ064>066-069>071-074>076-080>082-084>086-088>090-092>094-051900-
SOUTH-CENTRAL ILLINOIS

CITY           SKY/WX    TMP DP  RH WIND       PRES   REMARKS
CARBONDALE     CLOUDY    42  24  49 NW6       30.43F
6HR MIN TEMP:  21; 6HR MAX TEMP:  42;

MARION         PTSUNNY   43  25  49 NW9       30.43F
MT. VERNON     CLOUDY    39  25  56 W5        30.42F
CENTRALIA*     CLOUDY    36  26  67 W8        30.41F WCI  30
SALEM*         SUNNY     37  26  63 CALM      30.41F
$$

ILZ067-068-072-073-078-083-087-091-051900-
SOUTHEAST ILLINOIS

CITY           SKY/WX    TMP DP  RH WIND       PRES   REMARKS
LAWRENCEVILLE  SUNNY     40  25  55 W7        30.40F
HARRISBURG*    SUNNY     43  26  51 CALM      30.42F
ROBINSON*      SUNNY     37  26  64 NW6       30.41F WCI  32
CARMI*         SUNNY     41  26  55 W6        30.41F
$$

ABBREVIATIONS USED IN REMARKS
   TC - TEMPERATURE IN CELSIUS
  WCI - WIND CHILL INDEX
   HX - HEAT INDEX
  VSB - VISIBILITY
$$




USA.gov is the U.S. government's official web portal to all federal, state and local government web resources and services.